{"data":{"norad_id":44058,"intl_designator":"2019-010B","name":"ONEWEB-0010","alt_names":[],"object_type":"PAYLOAD","status":"ACTIVE","operator":null,"country":"UK","launch_date":"2019-02-27","launch_site_code":"FRGUI","launch_vehicle":null,"mission":null,"orbit_class":"UNKNOWN","rcs_meters":null,"size_class":null,"mass_kg":null,"dimensions":null,"purposes":["comms"],"wikipedia_slug":null,"has_3d_model":false,"image_url":null,"decayed_at":null,"tle_current":{"epoch":"2026-05-24T22:44:18.235392Z","epoch_age_seconds":79561,"freshness":"FRESH","line1":"1 44058U 19010B   26144.94743328 -.00000008  00000+0 -54411-4 0  9997","line2":"2 44058  87.9106 233.3949 0001634  99.0676 261.0640 13.16593824348554","mean_motion":13.16593824,"eccentricity":0.0001634,"inclination_deg":87.9106,"raan_deg":233.3949,"arg_perigee_deg":99.0676,"mean_anomaly_deg":261.064,"bstar":-5.4411e-5,"rev_number":34855,"period_min":109.37313951732,"perigee_km":1196.5204268318,"apogee_km":1198.9962294251,"semimajor_km":7575.8953281284,"source":"CELESTRAK","updated_at":"2026-05-25T13:38:22.330680Z"}}}